When you browse on this site, cookies collect data to enhance your experience and personalize the content and advertising you see.
Visit our Privacy Policy to learn more. By continuing to use the site, you agree to this use of cookies and data.
  • In Romania
  • List of Countries
  • For 7 days
  • Water Temperature
  • Satellite Maps
  • Weather Map
  • Weather Widgets
  • user-avatar
    Login

    Hourly Weather Kulikovka

    Today, 17 July, Wednesday

    Time Temperature Precipitation Wind Pressure Humidity
    00:00 +16°C° 0 mm 0 mps 743 mmHg 85%
    01:00 +16°C° 0 mm 0 mps 743 mmHg 85%
    02:00 +16°C° 0 mm 0 mps 743 mmHg 85%
    03:00 +18°C° 0 mm 1 mps 743 mmHg 84%
    04:00 +18°C° 0.2 mm 1 mps 743 mmHg 86%
    05:00 +16°C° 0.2 mm 1 mps 743 mmHg 89%
    06:00 +16°C° 0.2 mm 1 mps 743 mmHg 91%
    07:00 +16°C° 0 mm 1 mps 742 mmHg 91%
    08:00 +16°C° 0 mm 1 mps 742 mmHg 91%
    09:00 +16°C° 0 mm 2 mps 742 mmHg 91%
    10:00 +17°C° 0.1 mm 2 mps 742 mmHg 90%
    11:00 +17°C° 0.1 mm 3 mps 742 mmHg 88%
    12:00 +18°C° 0.1 mm 3 mps 742 mmHg 87%
    13:00 +18°C° 0.1 mm 3 mps 741 mmHg 84%
    14:00 +19°C° 0.1 mm 3 mps 741 mmHg 82%
    15:00 +20°C° 0.1 mm 3 mps 740 mmHg 80%
    16:00 +20°C° 0 mm 3 mps 740 mmHg 79%
    17:00 +20°C° 0 mm 2 mps 740 mmHg 79%
    18:00 +20°C° 0 mm 2 mps 740 mmHg 78%
    19:00 +19°C° 0 mm 2 mps 740 mmHg 83%
    20:00 +17°C° 0 mm 2 mps 740 mmHg 88%
    21:00 +16°C° 0 mm 1 mps 740 mmHg 93%
    22:00 +15°C° 0 mm 1 mps 740 mmHg 93%
    23:00 +15°C° 0 mm 1 mps 740 mmHg 94%

    Tomorrow, 18 July, Thursday

    Time Temperature Precipitation Wind Pressure Humidity
    00:00 +13°C° 0 mm 0 mps 739 mmHg 94%
    01:00 +13°C° 0 mm 0 mps 739 mmHg 94%
    02:00 +13°C° 0 mm 0 mps 739 mmHg 94%
    03:00 +14°C° 0 mm 1 mps 739 mmHg 95%
    04:00 +14°C° 0 mm 1 mps 739 mmHg 95%
    05:00 +15°C° 0 mm 1 mps 740 mmHg 95%
    06:00 +15°C° 0 mm 2 mps 740 mmHg 95%
    07:00 +17°C° 0 mm 2 mps 740 mmHg 89%
    08:00 +18°C° 0 mm 3 mps 740 mmHg 84%
    09:00 +19°C° 0 mm 4 mps 740 mmHg 78%
    10:00 +20°C° 0 mm 4 mps 740 mmHg 73%
    11:00 +21°C° 0 mm 4 mps 740 mmHg 68%
    12:00 +22°C° 0 mm 5 mps 740 mmHg 63%
    13:00 +22°C° 0.1 mm 5 mps 740 mmHg 62%
    14:00 +22°C° 0.1 mm 5 mps 741 mmHg 61%
    15:00 +23°C° 0.1 mm 6 mps 741 mmHg 61%
    16:00 +22°C° 0 mm 5 mps 741 mmHg 64%
    17:00 +22°C° 0 mm 5 mps 741 mmHg 67%
    18:00 +21°C° 0 mm 5 mps 741 mmHg 70%
    19:00 +20°C° 0 mm 4 mps 741 mmHg 75%
    20:00 +18°C° 0 mm 4 mps 741 mmHg 81%
    21:00 +16°C° 0 mm 3 mps 741 mmHg 86%
    22:00 +16°C° 0 mm 3 mps 742 mmHg 88%
    23:00 +14°C° 0 mm 3 mps 742 mmHg 90%

    Day after tomorrow, 19 July, Friday

    Time Temperature Precipitation Wind Pressure Humidity
    00:00 +14°C° 0 mm 3 mps 742 mmHg 92%
    01:00 +13°C° 0 mm 3 mps 742 mmHg 93%
    02:00 +13°C° 0 mm 3 mps 742 mmHg 94%
    03:00 +13°C° 0 mm 3 mps 742 mmHg 95%
    04:00 +13°C° 0 mm 4 mps 742 mmHg 94%
    05:00 +13°C° 0 mm 4 mps 742 mmHg 93%
    06:00 +14°C° 0 mm 5 mps 742 mmHg 92%
    07:00 +15°C° 0 mm 5 mps 742 mmHg 86%
    08:00 +17°C° 0 mm 6 mps 743 mmHg 80%
    09:00 +19°C° 0 mm 6 mps 743 mmHg 74%
    10:00 +20°C° 0.1 mm 6 mps 743 mmHg 72%
    11:00 +21°C° 0.1 mm 7 mps 743 mmHg 70%
    12:00 +22°C° 0.1 mm 7 mps 743 mmHg 68%
    13:00 +22°C° 0.4 mm 7 mps 743 mmHg 69%
    14:00 +22°C° 0.4 mm 7 mps 743 mmHg 70%
    15:00 +22°C° 0.4 mm 7 mps 743 mmHg 71%
    16:00 +21°C° 0 mm 7 mps 744 mmHg 72%
    17:00 +21°C° 0 mm 7 mps 744 mmHg 74%
    18:00 +20°C° 0 mm 6 mps 744 mmHg 75%
    19:00 +19°C° 0 mm 5 mps 744 mmHg 79%
    20:00 +17°C° 0 mm 5 mps 744 mmHg 83%
    21:00 +17°C° 0 mm 4 mps 745 mmHg 87%
    22:00 +15°C° 0 mm 4 mps 745 mmHg 89%
    23:00 +15°C° 0 mm 4 mps 745 mmHg 90%

    20 July, Saturday

    Time Temperature Precipitation Wind Pressure Humidity
    00:00 +15°C° 0 mm 5 mps 745 mmHg 91%
    01:00 +14°C° 0 mm 4 mps 745 mmHg 92%
    02:00 +14°C° 0 mm 4 mps 745 mmHg 93%
    03:00 +13°C° 0 mm 4 mps 745 mmHg 94%
    04:00 +14°C° 0 mm 4 mps 746 mmHg 92%
    05:00 +14°C° 0 mm 4 mps 746 mmHg 91%
    06:00 +14°C° 0 mm 5 mps 746 mmHg 89%
    07:00 +15°C° 0 mm 5 mps 746 mmHg 84%
    08:00 +17°C° 0 mm 5 mps 747 mmHg 78%
    09:00 +19°C° 0 mm 6 mps 747 mmHg 73%
    10:00 +20°C° 0 mm 6 mps 747 mmHg 70%
    11:00 +21°C° 0 mm 7 mps 747 mmHg 67%
    12:00 +22°C° 0 mm 7 mps 747 mmHg 64%
    13:00 +23°C° 0.2 mm 7 mps 747 mmHg 64%
    14:00 +23°C° 0.2 mm 7 mps 747 mmHg 63%
    15:00 +23°C° 0.2 mm 7 mps 747 mmHg 63%
    16:00 +23°C° 0.1 mm 6 mps 747 mmHg 65%
    17:00 +23°C° 0.1 mm 5 mps 747 mmHg 68%
    18:00 +22°C° 0.1 mm 4 mps 747 mmHg 70%
    19:00 +21°C° 0 mm 4 mps 748 mmHg 75%
    20:00 +19°C° 0 mm 4 mps 748 mmHg 80%
    21:00 +17°C° 0 mm 3 mps 748 mmHg 85%
    22:00 +17°C° 0 mm 3 mps 748 mmHg 87%
    23:00 +16°C° 0 mm 3 mps 748 mmHg 90%

    21 July, Sunday

    Time Temperature Precipitation Wind Pressure Humidity
    00:00 +16°C° 0 mm 3 mps 749 mmHg 92%
    01:00 +14°C° 0 mm 3 mps 749 mmHg 94%
    02:00 +14°C° 0 mm 3 mps 749 mmHg 95%
    03:00 +14°C° 0 mm 3 mps 749 mmHg 96%
    04:00 +14°C° 0 mm 3 mps 749 mmHg 95%
    05:00 +14°C° 0 mm 3 mps 749 mmHg 94%
    06:00 +14°C° 0 mm 3 mps 749 mmHg 93%
    07:00 +17°C° 0 mm 4 mps 749 mmHg 88%
    08:00 +18°C° 0 mm 4 mps 749 mmHg 83%
    09:00 +20°C° 0 mm 4 mps 749 mmHg 77%
    10:00 +21°C° 0 mm 4 mps 749 mmHg 73%
    11:00 +22°C° 0 mm 4 mps 749 mmHg 69%
    12:00 +23°C° 0 mm 4 mps 749 mmHg 65%
    13:00 +23°C° 0.2 mm 4 mps 749 mmHg 64%
    14:00 +23°C° 0.2 mm 4 mps 749 mmHg 64%
    15:00 +25°C° 0.2 mm 5 mps 748 mmHg 63%
    16:00 +23°C° 0.5 mm 4 mps 748 mmHg 67%
    17:00 +23°C° 0.5 mm 4 mps 748 mmHg 71%
    18:00 +22°C° 0.5 mm 4 mps 748 mmHg 75%
    19:00 +21°C° 0.1 mm 3 mps 748 mmHg 80%
    20:00 +19°C° 0.1 mm 3 mps 748 mmHg 85%
    21:00 +18°C° 0.1 mm 2 mps 748 mmHg 90%
    22:00 +17°C° 0 mm 2 mps 748 mmHg 91%
    23:00 +17°C° 0 mm 2 mps 748 mmHg 92%

    22 July, Monday

    Time Temperature Precipitation Wind Pressure Humidity
    00:00 +16°C° 0 mm 2 mps 748 mmHg 94%
    01:00 +16°C° 0 mm 2 mps 748 mmHg 94%
    02:00 +15°C° 0 mm 2 mps 748 mmHg 94%
    03:00 +15°C° 0 mm 2 mps 748 mmHg 94%
    04:00 +15°C° 0 mm 2 mps 748 mmHg 93%
    05:00 +15°C° 0 mm 2 mps 748 mmHg 91%
    06:00 +15°C° 0 mm 2 mps 749 mmHg 89%
    07:00 +16°C° 0 mm 2 mps 749 mmHg 83%
    08:00 +18°C° 0 mm 2 mps 749 mmHg 77%
    09:00 +19°C° 0 mm 2 mps 749 mmHg 71%
    10:00 +20°C° 0 mm 3 mps 749 mmHg 67%
    11:00 +21°C° 0 mm 3 mps 749 mmHg 63%
    12:00 +22°C° 0 mm 4 mps 749 mmHg 59%
    13:00 +23°C° 0.1 mm 4 mps 749 mmHg 60%
    14:00 +23°C° 0.1 mm 4 mps 748 mmHg 61%
    15:00 +23°C° 0.1 mm 4 mps 748 mmHg 62%
    16:00 +23°C° 0.1 mm 4 mps 748 mmHg 64%
    17:00 +22°C° 0.1 mm 3 mps 748 mmHg 66%
    18:00 +22°C° 0.1 mm 3 mps 748 mmHg 68%
    19:00 +21°C° 0.1 mm 2 mps 748 mmHg 74%
    20:00 +19°C° 0.1 mm 2 mps 748 mmHg 80%
    21:00 +17°C° 0.1 mm 2 mps 748 mmHg 85%
    22:00 +17°C° 0 mm 2 mps 748 mmHg 87%
    23:00 +16°C° 0 mm 2 mps 748 mmHg 89%
    Show more